EJU96EM LIBR-LIMC

Flight info

Callsign EJU96EM
Flight time 1h 18m
Altitude 36000
Route FASAN P92 BAR DCT PES DCT LOMED DCT BEROK DCT MIVKI DCT GOLAS T648 MEBUR
Aircraft A21N/M-SDE2E3FGHIJ1RWXYZ/LB1

Departure

Time 2026-04-24 20:39
Airport Brindisi Airport (LIBR)

Arrival

Time 2026-04-24 21:57
Airport Milan Malpensa International Airport (LIMC)
Time Latitude Longitude Altitude Speed Heading
2026-04-24 19:59 40.65783 17.94072 49 ft 0 kts 322°
2026-04-24 20:29 40.65766 17.94089 48 ft 4 kts 326°
2026-04-24 20:29 40.65743 17.94107 49 ft 4 kts 333°
2026-04-24 20:30 40.65719 17.94121 49 ft 4 kts 346°
2026-04-24 20:30 40.65694 17.94123 47 ft 4 kts 22°
2026-04-24 20:30 40.65684 17.94115 49 ft 0 kts 52°
2026-04-24 20:34 40.65694 17.94132 49 ft 4 kts 52°
2026-04-24 20:34 40.65711 17.94161 49 ft 0 kts 51°
2026-04-24 20:34 40.65713 17.94163 48 ft 1 kts 51°
2026-04-24 20:35 40.65729 17.94191 46 ft 6 kts 53°
2026-04-24 20:35 40.65762 17.94249 48 ft 10 kts 53°
2026-04-24 20:35 40.65809 17.94332 47 ft 13 kts 54°
2026-04-24 20:35 40.65863 17.94423 48 ft 13 kts 50°
2026-04-24 20:36 40.65921 17.94519 44 ft 14 kts 53°
2026-04-24 20:36 40.65982 17.94624 46 ft 15 kts 52°
2026-04-24 20:36 40.66024 17.94744 49 ft 15 kts 107°
2026-04-24 20:36 40.65948 17.94848 47 ft 16 kts 137°
2026-04-24 20:37 40.65861 17.94955 49 ft 18 kts 137°
2026-04-24 20:37 40.65767 17.95070 49 ft 19 kts 137°
2026-04-24 20:37 40.65670 17.95148 49 ft 15 kts 194°
2026-04-24 20:37 40.65591 17.95053 47 ft 13 kts 230°
2026-04-24 20:38 40.65603 17.94974 47 ft 10 kts 315°
2026-04-24 20:38 40.65680 17.94880 48 ft 33 kts 318°
2026-04-24 20:38 40.66026 17.94452 45 ft 100 kts 318°
2026-04-24 20:38 40.66678 17.93667 46 ft 152 kts 317°
2026-04-24 20:39 40.67471 17.92669 413 ft 159 kts 316°
2026-04-24 20:39 40.68274 17.91680 1082 ft 155 kts 319°
2026-04-24 20:39 40.69126 17.90673 1488 ft 174 kts 321°
2026-04-24 20:39 40.70069 17.89557 1982 ft 192 kts 321°
2026-04-24 20:40 40.71115 17.88289 2399 ft 219 kts 320°
2026-04-24 20:40 40.72299 17.86856 2873 ft 242 kts 320°
2026-04-24 20:40 40.73482 17.85250 3588 ft 254 kts 307°
2026-04-24 20:40 40.74288 17.83133 4416 ft 263 kts 295°
2026-04-24 20:41 40.74953 17.80863 5237 ft 268 kts 293°
2026-04-24 20:41 40.75628 17.78544 6041 ft 274 kts 294°
2026-04-24 20:41 40.76325 17.76181 6803 ft 279 kts 294°
2026-04-24 20:41 40.77043 17.73778 7607 ft 283 kts 295°
2026-04-24 20:42 40.77775 17.71337 8424 ft 288 kts 295°
2026-04-24 20:42 40.78515 17.68876 9286 ft 290 kts 295°
2026-04-24 20:42 40.79263 17.66393 10160 ft 292 kts 295°
2026-04-24 20:42 40.80035 17.63832 10601 ft 311 kts 295°
2026-04-24 20:43 40.80856 17.61096 10983 ft 329 kts 294°
2026-04-24 20:43 40.81709 17.58253 11640 ft 336 kts 294°
2026-04-24 20:43 40.82577 17.55362 12404 ft 340 kts 295°
2026-04-24 20:43 40.83456 17.52444 13177 ft 344 kts 294°
2026-04-24 20:44 40.84344 17.49486 13932 ft 349 kts 294°
2026-04-24 20:44 40.85244 17.46488 14603 ft 352 kts 294°
2026-04-24 20:44 40.86157 17.43472 15248 ft 356 kts 296°
2026-04-24 20:44 40.87286 17.40542 15874 ft 359 kts 302°
2026-04-24 20:45 40.88532 17.37657 16517 ft 364 kts 303°
2026-04-24 20:45 40.89809 17.34753 17184 ft 368 kts 303°
2026-04-24 20:45 40.91098 17.31812 17843 ft 372 kts 303°
2026-04-24 20:45 40.92398 17.28835 18476 ft 376 kts 303°
2026-04-24 20:46 40.93706 17.25824 19043 ft 379 kts 303°
2026-04-24 20:46 40.95024 17.22778 19587 ft 383 kts 303°
2026-04-24 20:46 40.96357 17.19702 20128 ft 387 kts 303°
2026-04-24 20:46 40.97702 17.16603 20670 ft 391 kts 303°
2026-04-24 20:47 40.99062 17.13464 21200 ft 394 kts 303°
2026-04-24 20:47 41.00431 17.10297 21737 ft 398 kts 303°
2026-04-24 20:47 41.01807 17.07103 22260 ft 402 kts 303°
2026-04-24 20:47 41.03197 17.03875 22764 ft 405 kts 303°
2026-04-24 20:48 41.04601 17.00610 23268 ft 409 kts 303°
2026-04-24 20:48 41.06014 16.97321 23746 ft 413 kts 303°
2026-04-24 20:48 41.07440 16.93999 24182 ft 416 kts 303°
2026-04-24 20:48 41.08871 16.90657 24613 ft 419 kts 303°
2026-04-24 20:49 41.10309 16.87278 25050 ft 422 kts 303°
2026-04-24 20:49 41.11756 16.83881 25473 ft 424 kts 303°
2026-04-24 20:49 41.13195 16.80510 25879 ft 427 kts 303°
2026-04-24 20:49 41.14730 16.77074 26291 ft 428 kts 307°
2026-04-24 20:50 41.16406 16.73806 26687 ft 430 kts 308°
2026-04-24 20:50 41.18114 16.70522 27065 ft 432 kts 308°
2026-04-24 20:50 41.19829 16.67229 27433 ft 435 kts 308°
2026-04-24 20:50 41.21523 16.63961 27805 ft 437 kts 307°
2026-04-24 20:51 41.23251 16.60626 28165 ft 440 kts 307°
2026-04-24 20:51 41.24988 16.57268 28513 ft 442 kts 307°
2026-04-24 20:51 41.26730 16.53887 28856 ft 445 kts 307°
2026-04-24 20:51 41.28479 16.50483 29208 ft 447 kts 307°
2026-04-24 20:52 41.30234 16.47071 29540 ft 449 kts 307°
2026-04-24 20:52 41.31998 16.43632 29866 ft 451 kts 307°
2026-04-24 20:52 41.33771 16.40176 30172 ft 454 kts 307°
2026-04-24 20:52 41.35556 16.36695 30442 ft 455 kts 307°
2026-04-24 20:53 41.37340 16.33212 30725 ft 457 kts 307°
2026-04-24 20:53 41.39132 16.29715 31019 ft 458 kts 307°
2026-04-24 20:53 41.40929 16.26198 31302 ft 460 kts 306°
2026-04-24 20:53 41.42733 16.22665 31572 ft 461 kts 306°
2026-04-24 20:54 41.44537 16.19131 31838 ft 463 kts 306°
2026-04-24 20:54 41.46348 16.15576 32101 ft 464 kts 306°
2026-04-24 20:54 41.48161 16.12017 32451 ft 463 kts 306°
2026-04-24 20:54 41.49966 16.08468 32821 ft 461 kts 306°
2026-04-24 20:55 41.51735 16.04975 33148 ft 460 kts 306°
2026-04-24 20:55 41.53541 16.01406 33465 ft 458 kts 306°
2026-04-24 20:55 41.55334 15.97879 33746 ft 458 kts 306°
2026-04-24 20:55 41.57096 15.94410 33997 ft 458 kts 306°
2026-04-24 20:56 41.58880 15.90891 34241 ft 457 kts 306°
2026-04-24 20:56 41.60684 15.87325 34471 ft 457 kts 306°
2026-04-24 20:56 41.62433 15.83859 34673 ft 457 kts 306°
2026-04-24 20:56 41.64204 15.80337 34881 ft 456 kts 306°
2026-04-24 20:57 41.65968 15.76809 35071 ft 456 kts 306°
2026-04-24 20:57 41.67735 15.73287 35256 ft 456 kts 306°
2026-04-24 20:57 41.69498 15.69780 35434 ft 455 kts 306°
2026-04-24 20:57 41.71267 15.66267 35596 ft 455 kts 306°
2026-04-24 20:58 41.73031 15.62751 35747 ft 454 kts 306°
2026-04-24 20:58 41.74792 15.59235 35862 ft 455 kts 307°
2026-04-24 20:58 41.76553 15.55712 36021 ft 456 kts 307°
2026-04-24 20:58 41.78318 15.52180 36137 ft 457 kts 307°
2026-04-24 20:59 41.81838 15.45096 36117 ft 456 kts 306°
2026-04-24 20:59 41.85345 15.38023 36090 ft 456 kts 306°
2026-04-24 21:00 41.88257 15.32135 36089 ft 456 kts 307°
2026-04-24 21:00 41.91779 15.25048 36087 ft 457 kts 306°
2026-04-24 21:01 41.95303 15.17928 36092 ft 457 kts 306°
2026-04-24 21:01 41.98809 15.10805 36091 ft 457 kts 306°
2026-04-24 21:02 42.02318 15.03671 36097 ft 457 kts 306°
2026-04-24 21:02 42.05815 14.96533 36091 ft 456 kts 306°
2026-04-24 21:03 42.09303 14.89397 36096 ft 457 kts 306°
2026-04-24 21:03 42.12797 14.82240 36099 ft 457 kts 306°
2026-04-24 21:04 42.16280 14.75070 36093 ft 457 kts 306°
2026-04-24 21:04 42.19773 14.67895 36093 ft 457 kts 306°
2026-04-24 21:05 42.23251 14.60706 36096 ft 457 kts 306°
2026-04-24 21:05 42.26730 14.53516 36088 ft 458 kts 306°
2026-04-24 21:06 42.30194 14.46311 36091 ft 458 kts 306°
2026-04-24 21:06 42.33648 14.39087 36086 ft 457 kts 306°
2026-04-24 21:07 42.37102 14.31884 36086 ft 457 kts 306°
2026-04-24 21:07 42.40542 14.24721 36084 ft 457 kts 306°
2026-04-24 21:08 42.44038 14.17539 36079 ft 457 kts 308°
2026-04-24 21:08 42.47733 14.10531 36083 ft 457 kts 309°
2026-04-24 21:09 42.51419 14.03514 36095 ft 457 kts 308°
2026-04-24 21:09 42.55102 13.96487 36099 ft 457 kts 308°
2026-04-24 21:10 42.58781 13.89460 36102 ft 457 kts 308°
2026-04-24 21:10 42.62462 13.82412 36097 ft 458 kts 308°
2026-04-24 21:11 42.66133 13.75333 36104 ft 458 kts 308°
2026-04-24 21:11 42.69812 13.68267 36114 ft 459 kts 308°
2026-04-24 21:12 42.73495 13.61176 36132 ft 458 kts 308°
2026-04-24 21:12 42.77158 13.54079 36132 ft 458 kts 308°
2026-04-24 21:13 42.80815 13.46979 36127 ft 458 kts 308°
2026-04-24 21:13 42.84478 13.39872 36122 ft 458 kts 308°
2026-04-24 21:14 42.88135 13.32752 36129 ft 458 kts 308°
2026-04-24 21:14 42.91755 13.25662 36124 ft 458 kts 308°
2026-04-24 21:15 42.95413 13.18482 36115 ft 457 kts 308°
2026-04-24 21:15 42.99025 13.11403 36112 ft 457 kts 308°
2026-04-24 21:16 43.02647 13.04282 36120 ft 457 kts 308°
2026-04-24 21:16 43.06272 12.97135 36121 ft 457 kts 308°
2026-04-24 21:17 43.09881 12.89991 36122 ft 457 kts 308°
2026-04-24 21:17 43.13496 12.82836 36116 ft 457 kts 308°
2026-04-24 21:18 43.17108 12.75673 36103 ft 457 kts 308°
2026-04-24 21:18 43.20712 12.68495 36112 ft 457 kts 308°
2026-04-24 21:19 43.24316 12.61304 36115 ft 458 kts 308°
2026-04-24 21:19 43.27917 12.54101 36112 ft 458 kts 308°
2026-04-24 21:20 43.33309 12.43298 36112 ft 457 kts 307°
2026-04-24 21:21 43.36891 12.36080 36111 ft 456 kts 307°
2026-04-24 21:21 43.40463 12.28881 36115 ft 456 kts 307°
2026-04-24 21:22 43.44026 12.21669 36119 ft 456 kts 307°
2026-04-24 21:22 43.47592 12.14461 36124 ft 456 kts 307°
2026-04-24 21:23 43.51135 12.07222 36126 ft 456 kts 307°
2026-04-24 21:23 43.54656 12.00036 36123 ft 455 kts 307°
2026-04-24 21:24 43.58219 11.92780 36129 ft 454 kts 307°
2026-04-24 21:24 43.61750 11.85561 36128 ft 454 kts 307°
2026-04-24 21:25 43.65245 11.78376 36138 ft 454 kts 307°
2026-04-24 21:25 43.68787 11.71090 36136 ft 454 kts 307°
2026-04-24 21:26 43.72302 11.63860 36131 ft 453 kts 306°
2026-04-24 21:26 43.75806 11.56612 36132 ft 453 kts 306°
2026-04-24 21:27 43.79286 11.49405 36135 ft 453 kts 306°
2026-04-24 21:27 43.82777 11.42144 36133 ft 453 kts 306°
2026-04-24 21:28 43.86264 11.34872 36128 ft 453 kts 306°
2026-04-24 21:28 43.89750 11.27595 36126 ft 453 kts 306°
2026-04-24 21:29 43.93228 11.20318 36140 ft 452 kts 306°
2026-04-24 21:29 43.96699 11.13036 36140 ft 452 kts 306°
2026-04-24 21:30 44.00159 11.05753 36148 ft 452 kts 306°
2026-04-24 21:30 44.03218 10.98111 36150 ft 457 kts 291°
2026-04-24 21:31 44.05069 10.89658 36157 ft 458 kts 288°
2026-04-24 21:31 44.06843 10.81170 36166 ft 457 kts 288°
2026-04-24 21:32 44.08647 10.72697 36171 ft 457 kts 288°
2026-04-24 21:32 44.10448 10.64208 36176 ft 457 kts 288°
2026-04-24 21:33 44.12244 10.55731 36173 ft 457 kts 288°
2026-04-24 21:33 44.14026 10.47263 36175 ft 454 kts 288°
2026-04-24 21:34 44.15794 10.38823 36163 ft 454 kts 288°
2026-04-24 21:34 44.17561 10.30383 36157 ft 454 kts 288°
2026-04-24 21:35 44.19324 10.21947 36092 ft 450 kts 288°
2026-04-24 21:35 44.20194 10.17763 35275 ft 452 kts 287°
2026-04-24 21:35 44.21069 10.13558 34647 ft 451 kts 287°
2026-04-24 21:35 44.21953 10.09365 33910 ft 451 kts 289°
2026-04-24 21:36 44.23219 10.05435 33033 ft 451 kts 302°
2026-04-24 21:36 44.25052 10.01893 32124 ft 450 kts 314°
2026-04-24 21:36 44.27276 9.98831 31250 ft 449 kts 318°
2026-04-24 21:36 44.29602 9.95850 30393 ft 449 kts 319°
2026-04-24 21:37 44.31905 9.92914 29437 ft 448 kts 319°
2026-04-24 21:37 44.34166 9.90010 28489 ft 447 kts 318°
2026-04-24 21:37 44.36447 9.87065 27566 ft 445 kts 318°
2026-04-24 21:37 44.38716 9.84125 26674 ft 444 kts 318°
2026-04-24 21:38 44.40970 9.81196 25809 ft 442 kts 317°
2026-04-24 21:38 44.43210 9.78275 24962 ft 439 kts 317°
2026-04-24 21:38 44.45441 9.75370 24142 ft 437 kts 317°
2026-04-24 21:38 44.47661 9.72476 23273 ft 434 kts 317°
2026-04-24 21:39 44.49866 9.69600 22343 ft 432 kts 317°
2026-04-24 21:39 44.52054 9.66743 21442 ft 428 kts 317°
2026-04-24 21:39 44.54221 9.63911 20567 ft 425 kts 317°
2026-04-24 21:39 44.56377 9.61091 19720 ft 422 kts 317°
2026-04-24 21:40 44.58512 9.58287 18886 ft 419 kts 317°
2026-04-24 21:40 44.60631 9.55505 18021 ft 416 kts 317°
2026-04-24 21:40 44.62724 9.52760 17364 ft 407 kts 317°
2026-04-24 21:40 44.64756 9.50086 17062 ft 393 kts 318°
2026-04-24 21:41 44.66703 9.47518 16745 ft 375 kts 318°
2026-04-24 21:41 44.68567 9.45065 16446 ft 359 kts 317°
2026-04-24 21:41 44.70357 9.42708 16119 ft 346 kts 318°
2026-04-24 21:41 44.72092 9.40421 15506 ft 340 kts 318°
2026-04-24 21:42 44.73814 9.38150 14791 ft 338 kts 318°
2026-04-24 21:42 44.75527 9.35886 14087 ft 338 kts 318°
2026-04-24 21:42 44.77237 9.33625 13434 ft 336 kts 318°
2026-04-24 21:42 44.78912 9.31404 13088 ft 326 kts 318°
2026-04-24 21:43 44.80543 9.29243 12793 ft 318 kts 318°
2026-04-24 21:43 44.82135 9.27132 12530 ft 310 kts 318°
2026-04-24 21:43 44.83681 9.25080 12273 ft 302 kts 319°
2026-04-24 21:43 44.85212 9.23048 12023 ft 302 kts 318°
2026-04-24 21:44 44.86738 9.21022 11767 ft 301 kts 318°
2026-04-24 21:44 44.88255 9.19005 11514 ft 299 kts 318°
2026-04-24 21:44 44.89765 9.16991 11236 ft 307 kts 318°
2026-04-24 21:44 44.91428 9.14780 10961 ft 350 kts 318°
2026-04-24 21:45 44.93275 9.12324 10592 ft 371 kts 318°
2026-04-24 21:45 44.95147 9.09819 10223 ft 370 kts 318°
2026-04-24 21:45 44.96966 9.07386 9851 ft 358 kts 318°
2026-04-24 21:45 44.98729 9.05028 9395 ft 341 kts 318°
2026-04-24 21:46 45.00423 9.02761 8840 ft 331 kts 318°
2026-04-24 21:46 45.02071 9.00554 8248 ft 322 kts 317°
2026-04-24 21:46 45.03703 8.98380 7648 ft 315 kts 320°
2026-04-24 21:46 45.05455 8.96669 7073 ft 307 kts 330°
2026-04-24 21:47 45.07296 8.95187 6498 ft 301 kts 331°
2026-04-24 21:47 45.08520 8.94215 6082 ft 297 kts 331°
2026-04-24 21:47 45.10875 8.92339 5294 ft 290 kts 330°
2026-04-24 21:47 45.12614 8.90934 4708 ft 286 kts 330°
2026-04-24 21:48 45.14340 8.89529 4270 ft 285 kts 330°
2026-04-24 21:48 45.16049 8.88141 4017 ft 279 kts 330°
2026-04-24 21:48 45.17698 8.86801 3953 ft 270 kts 330°
2026-04-24 21:48 45.19266 8.85514 3949 ft 254 kts 330°
2026-04-24 21:49 45.20784 8.84403 3937 ft 239 kts 341°
2026-04-24 21:49 45.21863 8.84002 3952 ft 237 kts 348°
2026-04-24 21:49 45.23484 8.83569 3973 ft 237 kts 350°
2026-04-24 21:49 45.25107 8.83154 3976 ft 237 kts 351°
2026-04-24 21:50 45.26734 8.82770 3982 ft 237 kts 351°
2026-04-24 21:50 45.28362 8.82409 3984 ft 237 kts 353°
2026-04-24 21:50 45.29998 8.82139 3989 ft 237 kts 354°
2026-04-24 21:50 45.31618 8.81893 3994 ft 237 kts 354°
2026-04-24 21:51 45.33248 8.81548 4000 ft 237 kts 349°
2026-04-24 21:51 45.34885 8.81091 4002 ft 237 kts 350°
2026-04-24 21:51 45.36454 8.80661 3991 ft 221 kts 349°
2026-04-24 21:51 45.37913 8.80262 3978 ft 215 kts 349°
2026-04-24 21:52 45.39381 8.79858 3984 ft 215 kts 349°
2026-04-24 21:52 45.40781 8.79475 4000 ft 194 kts 349°
2026-04-24 21:52 45.42085 8.79117 4033 ft 184 kts 350°
2026-04-24 21:52 45.43326 8.78777 4011 ft 181 kts 349°
2026-04-24 21:53 45.44560 8.78438 3967 ft 180 kts 349°
2026-04-24 21:53 45.45791 8.78099 3815 ft 180 kts 349°
2026-04-24 21:53 45.47017 8.77763 3605 ft 179 kts 349°
2026-04-24 21:53 45.48240 8.77426 3377 ft 179 kts 349°
2026-04-24 21:54 45.49459 8.77090 3141 ft 179 kts 349°
2026-04-24 21:54 45.50679 8.76755 2904 ft 179 kts 348°
2026-04-24 21:54 45.51898 8.76419 2668 ft 179 kts 348°
2026-04-24 21:54 45.53117 8.76083 2431 ft 178 kts 348°
2026-04-24 21:55 45.54335 8.75748 2207 ft 179 kts 348°
2026-04-24 21:55 45.55535 8.75409 1983 ft 171 kts 346°
2026-04-24 21:55 45.56664 8.75106 1738 ft 159 kts 347°
2026-04-24 21:55 45.57728 8.74835 1481 ft 156 kts 347°
2026-04-24 21:56 45.58802 8.74521 1301 ft 155 kts 346°
2026-04-24 21:56 45.59853 8.74232 1114 ft 153 kts 348°
2026-04-24 21:56 45.60891 8.73933 923 ft 152 kts 349°
2026-04-24 21:56 45.61917 8.73651 757 ft 143 kts 349°
2026-04-24 21:57 45.62789 8.73416 750 ft 111 kts 350°
2026-04-24 21:57 45.63418 8.73242 751 ft 48 kts 348°
2026-04-24 21:57 45.63678 8.73109 749 ft 38 kts 322°
2026-04-24 21:57 45.63803 8.72941 755 ft 16 kts 305°
2026-04-24 21:58 45.63848 8.72845 755 ft 12 kts 303°
2026-04-24 21:58 45.63912 8.72793 754 ft 12 kts 347°
2026-04-24 21:58 45.63998 8.72770 755 ft 13 kts 351°
2026-04-24 21:58 45.64096 8.72747 753 ft 15 kts 349°
2026-04-24 21:59 45.64205 8.72718 755 ft 17 kts 350°
2026-04-24 21:59 45.64307 8.72691 755 ft 15 kts 349°
2026-04-24 21:59 45.64411 8.72671 756 ft 11 kts 355°
2026-04-24 21:59 45.64465 8.72664 753 ft 7 kts 355°
2026-04-24 22:00 45.64512 8.72631 753 ft 7 kts 294°
2026-04-24 22:00 45.64526 8.72587 757 ft 5 kts 298°
2026-04-24 22:00 45.64546 8.72541 755 ft 6 kts 303°
2026-04-24 22:00 45.64552 8.72528 757 ft 0 kts 301°